MSC Ludovica — HPAF — position and weather

sailwx.info

Track history (hours):
 
Tides and Currents Weather Stations Pressure Air Temp Water Temp Dewpoint Dewpoint Depression Visibility Wind Speed Wind Dir Waves Ship Positions

MSC Ludovica

Last reported at 2014-Jul-23 06:33 UTC. Time now 2014-Jul-23 16:25 UTC.
Position N 36°27' E 014°28'.

Length 301 m; draft 12.3 m.

Type: Ship. MMSI: 351248000.

Date/timePositionNaut miles runAvg speedWind from/ knotsBaromVisibWave heightAir tempDewpointWater temp
2014-Jul-23 06:33N 36°27' E 014°28'1919.4
2014-Jul-23 05:33N 36°32' E 014°05'1919.3
2014-Jul-23 04:33N 36°37' E 013°41'2219.1
2014-Jul-23 03:24N 36°44' E 013°15'41519.0
2014-Jul-22 05:33N 37°20' E 004°37'5919.4
2014-Jul-22 02:29N 37°14' E 003°23'1819.1
2014-Jul-22 01:33N 37°11' E 003°00'1919.7
2014-Jul-22 00:33N 37°07' E 002°36'2019.8
2014-Jul-21 23:32N 37°03' E 002°11'1819.0
2014-Jul-21 22:33N 36°59' E 001°49'1919.3
2014-Jul-21 21:33N 36°56' E 001°25'2019.9
2014-Jul-21 20:33N 36°52' E 001°01'519.8
2014-Jul-21 20:18N 36°50' E 000°55'1419.4
2014-Jul-21 19:33N 36°47' E 000°37'1919.5
2014-Jul-21 18:33N 36°44' E 000°13'1919.2
2014-Jul-21 17:33N 36°41' W 000°11'2019.5
2014-Jul-21 16:32N 36°37' W 000°35'6020.2
2014-Jul-21 13:33N 36°26' W 001°48'17221.3
2014-Jul-21 05:29N 35°59' W 005°19'17220.6
2014-Jul-20 21:07N 36°27' W 008°49'1220.7
2014-Jul-20 20:33N 36°30' W 009°04'2220.4
2014-Jul-20 19:28N 36°42' W 009°26'1920.3
2014-Jul-20 18:32N 37°00' W 009°35'2020.1
2014-Jul-20 17:33N 37°17' W 009°22'2121.1
2014-Jul-20 16:33N 37°33' W 009°05'2120.9
2014-Jul-20 15:33N 37°51' W 008°51'5 4.8
2014-Jul-20 14:33N 37°56' W 008°51'0 0.0
2014-Jul-20 13:33N 37°56' W 008°51'0 0.0
2014-Jul-20 12:33N 37°56' W 008°51'0 0.0
2014-Jul-20 11:33N 37°56' W 008°51'0 0.0
2014-Jul-20 10:33N 37°56' W 008°51'0 0.0
2014-Jul-20 09:33N 37°56' W 008°51'0 0.0
2014-Jul-20 08:33N 37°56' W 008°51'0 0.0
2014-Jul-20 07:33N 37°56' W 008°51'0 0.2
2014-Jul-20 06:33N 37°56' W 008°51'2 1.8
2014-Jul-20 05:33N 37°54' W 008°51'1 0.9
2014-Jul-20 04:33N 37°53' W 008°52'0 0.0
2014-Jul-20 03:33N 37°53' W 008°52'0 0.0
2014-Jul-20 02:33N 37°53' W 008°52'0 0.0
2014-Jul-20 01:33N 37°53' W 008°52'0 0.0
2014-Jul-20 00:33N 37°53' W 008°52'0 0.0
2014-Jul-19 23:33N 37°53' W 008°52'0 0.0
2014-Jul-19 22:33N 37°53' W 008°52'1 1.2
2014-Jul-19 21:33N 37°52' W 008°52'7 7.3
2014-Jul-19 20:33N 37°56' W 009°01'1818.3
2014-Jul-19 19:33N 38°05' W 009°20'1818.0
2014-Jul-19 18:33N 38°16' W 009°39'80817.2
2014-Jul-17 19:33N 50°17' W 001°11'6622.0
2014-Jul-17 16:33N 50°36' E 000°28'2020.2
2014-Jul-17 15:33N 50°46' E 000°55'1919.3
2014-Jul-17 14:34N 50°59' E 001°18'2019.9
2014-Jul-17 13:34N 51°11' E 001°42'1919.0
2014-Jul-17 12:34N 51°23' E 002°06'1818.3
2014-Jul-17 11:34N 51°23' E 002°36'1414.0
2014-Jul-17 10:33N 51°25' E 002°58'1918.7
2014-Jul-17 09:33N 51°25' E 003°28'1514.7
2014-Jul-17 08:34N 51°21' E 003°50'1110.9
2014-Jul-17 07:34N 51°22' E 004°08'6 6.0
2014-Jul-17 06:34N 51°21' E 004°17'0 0.0
2014-Jul-17 05:34N 51°21' E 004°17'2 2.2
2014-Jul-17 04:33N 51°20' E 004°20'0 0.1
2014-Jul-17 03:29N 51°20' E 004°20'0 0.0
2014-Jul-17 01:29N 51°20' E 004°20'0 0.0
2014-Jul-17 00:32N 51°20' E 004°20'0 0.0
2014-Jul-16 23:32N 51°20' E 004°20'0 0.0
2014-Jul-16 22:32N 51°20' E 004°20'0 0.0
2014-Jul-16 21:29N 51°20' E 004°20'0 0.0
2014-Jul-16 20:32N 51°20' E 004°20'0 0.0
2014-Jul-16 19:32N 51°20' E 004°20'0 0.0
2014-Jul-16 18:32N 51°20' E 004°20'0 0.0
2014-Jul-16 17:29N 51°20' E 004°20'0 0.0
2014-Jul-16 16:32N 51°20' E 004°20'0 0.0
2014-Jul-16 15:32N 51°20' E 004°20'0 0.0
2014-Jul-16 14:32N 51°20' E 004°20'0 0.0
2014-Jul-16 13:32N 51°20' E 004°20'0 0.0
2014-Jul-16 12:32N 51°20' E 004°20'0 0.0
2014-Jul-16 11:29N 51°20' E 004°20'0 0.0
2014-Jul-16 10:33N 51°20' E 004°20'0 0.0
2014-Jul-16 09:34N 51°20' E 004°20'0 0.0
2014-Jul-16 08:33N 51°20' E 004°20'0 0.1
2014-Jul-16 07:33N 51°20' E 004°20'0 0.1
2014-Jul-16 06:33N 51°20' E 004°20'0 0.0
2014-Jul-16 05:33N 51°20' E 004°20'0 0.0
2014-Jul-16 04:33N 51°20' E 004°20'0 0.0
2014-Jul-16 03:33N 51°20' E 004°20'0 0.0
2014-Jul-16 02:33N 51°20' E 004°20'0 0.0
2014-Jul-16 01:33N 51°20' E 004°20'0 0.0
2014-Jul-16 00:33N 51°20' E 004°20'0 0.0
2014-Jul-15 23:33N 51°20' E 004°20'0 0.0
2014-Jul-15 22:33N 51°20' E 004°20'1 0.9
2014-Jul-15 21:33N 51°19' E 004°19'3 3.1
2014-Jul-15 20:33N 51°17' E 004°21'0 0.1
2014-Jul-15 19:31N 51°17' E 004°21'0 0.0
2014-Jul-15 18:31N 51°17' E 004°21'0 0.0
2014-Jul-15 17:31N 51°17' E 004°21'0 0.0
2014-Jul-15 16:31N 51°17' E 004°21'0 0.1
2014-Jul-15 15:31N 51°17' E 004°21'0 0.0
2014-Jul-15 14:31N 51°17' E 004°21'0 0.1
2014-Jul-15 13:31N 51°17' E 004°21'0 0.0
2014-Jul-15 12:31N 51°17' E 004°21'0 0.0
2014-Jul-15 11:31N 51°17' E 004°21'0 0.0
2014-Jul-15 10:31N 51°17' E 004°21'0 0.0
2014-Jul-15 09:31N 51°17' E 004°21'0 0.0
2014-Jul-15 08:31N 51°17' E 004°21'0 0.0
2014-Jul-15 07:31N 51°17' E 004°21'0 0.0
2014-Jul-15 06:25N 51°17' E 004°21'0 0.0
2014-Jul-15 05:31N 51°17' E 004°21'0 0.0
2014-Jul-15 04:31N 51°17' E 004°21'0 0.0
2014-Jul-15 03:31N 51°17' E 004°21'0 0.0
2014-Jul-15 02:31N 51°17' E 004°21'0 0.0
2014-Jul-15 01:31N 51°17' E 004°21'0 0.0
2014-Jul-15 00:31N 51°17' E 004°21'0 0.0
2014-Jul-14 23:31N 51°17' E 004°21'0 0.0
2014-Jul-14 22:31N 51°17' E 004°21'0 0.0
2014-Jul-14 21:31N 51°17' E 004°21'0 0.0
2014-Jul-14 20:33N 51°17' E 004°21'0 0.0
2014-Jul-14 19:33N 51°17' E 004°21'0 0.0
2014-Jul-14 18:33N 51°17' E 004°21'0 0.0
2014-Jul-14 17:33N 51°17' E 004°21'0 0.0
2014-Jul-14 16:33N 51°17' E 004°21'0 0.0
2014-Jul-14 15:33N 51°17' E 004°21'0 0.0
2014-Jul-14 14:30N 51°17' E 004°21'0 0.0
2014-Jul-14 13:33N 51°17' E 004°21'0 0.0
2014-Jul-14 12:33N 51°17' E 004°21'0 0.3
2014-Jul-14 11:33N 51°17' E 004°21'2 1.6
2014-Jul-14 10:33N 51°15' E 004°21'0 0.0
2014-Jul-14 09:33N 51°15' E 004°21'0 0.0
2014-Jul-14 08:33N 51°15' E 004°21'0 0.1
2014-Jul-14 07:33N 51°15' E 004°21'0 0.1
2014-Jul-14 06:29N 51°15' E 004°21'0 0.1
2014-Jul-14 05:33N 51°15' E 004°21'0 0.0
2014-Jul-14 04:33N 51°15' E 004°21'0 0.0
2014-Jul-14 03:33N 51°15' E 004°21'0 0.0
2014-Jul-14 02:33N 51°15' E 004°21'0 0.0
2014-Jul-14 01:33N 51°15' E 004°21'0 0.0
2014-Jul-14 00:33N 51°15' E 004°21'0 0.0
2014-Jul-13 23:33N 51°15' E 004°21'0 0.0
2014-Jul-13 22:33N 51°15' E 004°21'0 0.0
2014-Jul-13 21:33N 51°15' E 004°21'0 0.0
2014-Jul-13 20:33N 51°15' E 004°21'0 0.0
2014-Jul-13 19:33N 51°15' E 004°21'0 0.0
2014-Jul-13 18:33N 51°15' E 004°21'0 0.0
2014-Jul-13 17:33N 51°15' E 004°21'0 0.0
2014-Jul-13 16:33N 51°15' E 004°21'0 0.0
2014-Jul-13 15:33N 51°15' E 004°21'0 0.0
2014-Jul-13 14:33N 51°15' E 004°21'0 0.0
2014-Jul-13 13:33N 51°15' E 004°21'0 0.0
2014-Jul-13 12:33N 51°15' E 004°21'0 0.0
2014-Jul-13 11:33N 51°15' E 004°21'0 0.0
2014-Jul-13 10:33N 51°15' E 004°21'0 0.0
2014-Jul-13 09:33N 51°15' E 004°21'0 0.0
2014-Jul-13 08:33N 51°15' E 004°21'0 0.0
2014-Jul-13 07:33N 51°15' E 004°21'0 0.0
2014-Jul-13 06:33N 51°15' E 004°21'  
Track history (hours):
 
Tides and Currents Weather Stations Pressure Air Temp Water Temp Dewpoint Dewpoint Depression Visibility Wind Speed Wind Dir Waves Ship Positions

MSC Ludovica

Last reported at 2014-Jul-23 06:33 UTC. Time now 2014-Jul-23 16:25 UTC.
Position N 36°27' E 014°28'.

Length 301 m; draft 12.3 m.

Type: Ship. MMSI: 351248000.

Date/timePositionNaut miles runAvg speedWind from/ knotsBaromVisibWave heightAir tempDewpointWater temp
2014-Jul-23 06:33N 36°27' E 014°28'1919.4
2014-Jul-23 05:33N 36°32' E 014°05'1919.3
2014-Jul-23 04:33N 36°37' E 013°41'2219.1
2014-Jul-23 03:24N 36°44' E 013°15'41519.0
2014-Jul-22 05:33N 37°20' E 004°37'5919.4
2014-Jul-22 02:29N 37°14' E 003°23'1819.1
2014-Jul-22 01:33N 37°11' E 003°00'1919.7
2014-Jul-22 00:33N 37°07' E 002°36'2019.8
2014-Jul-21 23:32N 37°03' E 002°11'1819.0
2014-Jul-21 22:33N 36°59' E 001°49'1919.3
2014-Jul-21 21:33N 36°56' E 001°25'2019.9
2014-Jul-21 20:33N 36°52' E 001°01'519.8
2014-Jul-21 20:18N 36°50' E 000°55'1419.4
2014-Jul-21 19:33N 36°47' E 000°37'1919.5
2014-Jul-21 18:33N 36°44' E 000°13'1919.2
2014-Jul-21 17:33N 36°41' W 000°11'2019.5
2014-Jul-21 16:32N 36°37' W 000°35'6020.2
2014-Jul-21 13:33N 36°26' W 001°48'17221.3
2014-Jul-21 05:29N 35°59' W 005°19'17220.6
2014-Jul-20 21:07N 36°27' W 008°49'1220.7
2014-Jul-20 20:33N 36°30' W 009°04'2220.4
2014-Jul-20 19:28N 36°42' W 009°26'1920.3
2014-Jul-20 18:32N 37°00' W 009°35'2020.1
2014-Jul-20 17:33N 37°17' W 009°22'2121.1
2014-Jul-20 16:33N 37°33' W 009°05'2120.9
2014-Jul-20 15:33N 37°51' W 008°51'5 4.8
2014-Jul-20 14:33N 37°56' W 008°51'0 0.0
2014-Jul-20 13:33N 37°56' W 008°51'0 0.0
2014-Jul-20 12:33N 37°56' W 008°51'0 0.0
2014-Jul-20 11:33N 37°56' W 008°51'0 0.0
2014-Jul-20 10:33N 37°56' W 008°51'0 0.0
2014-Jul-20 09:33N 37°56' W 008°51'0 0.0
2014-Jul-20 08:33N 37°56' W 008°51'0 0.0
2014-Jul-20 07:33N 37°56' W 008°51'0 0.2
2014-Jul-20 06:33N 37°56' W 008°51'2 1.8
2014-Jul-20 05:33N 37°54' W 008°51'1 0.9
2014-Jul-20 04:33N 37°53' W 008°52'0 0.0
2014-Jul-20 03:33N 37°53' W 008°52'0 0.0
2014-Jul-20 02:33N 37°53' W 008°52'0 0.0
2014-Jul-20 01:33N 37°53' W 008°52'0 0.0
2014-Jul-20 00:33N 37°53' W 008°52'0 0.0
2014-Jul-19 23:33N 37°53' W 008°52'0 0.0
2014-Jul-19 22:33N 37°53' W 008°52'1 1.2
2014-Jul-19 21:33N 37°52' W 008°52'7 7.3
2014-Jul-19 20:33N 37°56' W 009°01'1818.3
2014-Jul-19 19:33N 38°05' W 009°20'1818.0
2014-Jul-19 18:33N 38°16' W 009°39'80817.2
2014-Jul-17 19:33N 50°17' W 001°11'6622.0
2014-Jul-17 16:33N 50°36' E 000°28'2020.2
2014-Jul-17 15:33N 50°46' E 000°55'1919.3
2014-Jul-17 14:34N 50°59' E 001°18'2019.9
2014-Jul-17 13:34N 51°11' E 001°42'1919.0
2014-Jul-17 12:34N 51°23' E 002°06'1818.3
2014-Jul-17 11:34N 51°23' E 002°36'1414.0
2014-Jul-17 10:33N 51°25' E 002°58'1918.7
2014-Jul-17 09:33N 51°25' E 003°28'1514.7
2014-Jul-17 08:34N 51°21' E 003°50'1110.9
2014-Jul-17 07:34N 51°22' E 004°08'6 6.0
2014-Jul-17 06:34N 51°21' E 004°17'0 0.0
2014-Jul-17 05:34N 51°21' E 004°17'2 2.2
2014-Jul-17 04:33N 51°20' E 004°20'0 0.1
2014-Jul-17 03:29N 51°20' E 004°20'0 0.0
2014-Jul-17 01:29N 51°20' E 004°20'0 0.0
2014-Jul-17 00:32N 51°20' E 004°20'0 0.0
2014-Jul-16 23:32N 51°20' E 004°20'0 0.0
2014-Jul-16 22:32N 51°20' E 004°20'0 0.0
2014-Jul-16 21:29N 51°20' E 004°20'0 0.0
2014-Jul-16 20:32N 51°20' E 004°20'0 0.0
2014-Jul-16 19:32N 51°20' E 004°20'0 0.0
2014-Jul-16 18:32N 51°20' E 004°20'0 0.0
2014-Jul-16 17:29N 51°20' E 004°20'0 0.0
2014-Jul-16 16:32N 51°20' E 004°20'0 0.0
2014-Jul-16 15:32N 51°20' E 004°20'0 0.0
2014-Jul-16 14:32N 51°20' E 004°20'0 0.0
2014-Jul-16 13:32N 51°20' E 004°20'0 0.0
2014-Jul-16 12:32N 51°20' E 004°20'0 0.0
2014-Jul-16 11:29N 51°20' E 004°20'0 0.0
2014-Jul-16 10:33N 51°20' E 004°20'0 0.0
2014-Jul-16 09:34N 51°20' E 004°20'0 0.0
2014-Jul-16 08:33N 51°20' E 004°20'0 0.1
2014-Jul-16 07:33N 51°20' E 004°20'0 0.1
2014-Jul-16 06:33N 51°20' E 004°20'0 0.0
2014-Jul-16 05:33N 51°20' E 004°20'0 0.0
2014-Jul-16 04:33N 51°20' E 004°20'0 0.0
2014-Jul-16 03:33N 51°20' E 004°20'0 0.0
2014-Jul-16 02:33N 51°20' E 004°20'0 0.0
2014-Jul-16 01:33N 51°20' E 004°20'0 0.0
2014-Jul-16 00:33N 51°20' E 004°20'0 0.0
2014-Jul-15 23:33N 51°20' E 004°20'0 0.0
2014-Jul-15 22:33N 51°20' E 004°20'1 0.9
2014-Jul-15 21:33N 51°19' E 004°19'3 3.1
2014-Jul-15 20:33N 51°17' E 004°21'0 0.1
2014-Jul-15 19:31N 51°17' E 004°21'0 0.0
2014-Jul-15 18:31N 51°17' E 004°21'0 0.0
2014-Jul-15 17:31N 51°17' E 004°21'0 0.0
2014-Jul-15 16:31N 51°17' E 004°21'0 0.1
2014-Jul-15 15:31N 51°17' E 004°21'0 0.0
2014-Jul-15 14:31N 51°17' E 004°21'0 0.1
2014-Jul-15 13:31N 51°17' E 004°21'0 0.0
2014-Jul-15 12:31N 51°17' E 004°21'0 0.0
2014-Jul-15 11:31N 51°17' E 004°21'0 0.0
2014-Jul-15 10:31N 51°17' E 004°21'0 0.0
2014-Jul-15 09:31N 51°17' E 004°21'0 0.0
2014-Jul-15 08:31N 51°17' E 004°21'0 0.0
2014-Jul-15 07:31N 51°17' E 004°21'0 0.0
2014-Jul-15 06:25N 51°17' E 004°21'0 0.0
2014-Jul-15 05:31N 51°17' E 004°21'0 0.0
2014-Jul-15 04:31N 51°17' E 004°21'0 0.0
2014-Jul-15 03:31N 51°17' E 004°21'0 0.0
2014-Jul-15 02:31N 51°17' E 004°21'0 0.0
2014-Jul-15 01:31N 51°17' E 004°21'0 0.0
2014-Jul-15 00:31N 51°17' E 004°21'0 0.0
2014-Jul-14 23:31N 51°17' E 004°21'0 0.0
2014-Jul-14 22:31N 51°17' E 004°21'0 0.0
2014-Jul-14 21:31N 51°17' E 004°21'0 0.0
2014-Jul-14 20:33N 51°17' E 004°21'0 0.0
2014-Jul-14 19:33N 51°17' E 004°21'0 0.0
2014-Jul-14 18:33N 51°17' E 004°21'0 0.0
2014-Jul-14 17:33N 51°17' E 004°21'0 0.0
2014-Jul-14 16:33N 51°17' E 004°21'0 0.0
2014-Jul-14 15:33N 51°17' E 004°21'0 0.0
2014-Jul-14 14:30N 51°17' E 004°21'0 0.0
2014-Jul-14 13:33N 51°17' E 004°21'0 0.0
2014-Jul-14 12:33N 51°17' E 004°21'0 0.3
2014-Jul-14 11:33N 51°17' E 004°21'2 1.6
2014-Jul-14 10:33N 51°15' E 004°21'0 0.0
2014-Jul-14 09:33N 51°15' E 004°21'0 0.0
2014-Jul-14 08:33N 51°15' E 004°21'0 0.1
2014-Jul-14 07:33N 51°15' E 004°21'0 0.1
2014-Jul-14 06:29N 51°15' E 004°21'0 0.1
2014-Jul-14 05:33N 51°15' E 004°21'0 0.0
2014-Jul-14 04:33N 51°15' E 004°21'0 0.0
2014-Jul-14 03:33N 51°15' E 004°21'0 0.0
2014-Jul-14 02:33N 51°15' E 004°21'0 0.0
2014-Jul-14 01:33N 51°15' E 004°21'0 0.0
2014-Jul-14 00:33N 51°15' E 004°21'0 0.0
2014-Jul-13 23:33N 51°15' E 004°21'0 0.0
2014-Jul-13 22:33N 51°15' E 004°21'0 0.0
2014-Jul-13 21:33N 51°15' E 004°21'0 0.0
2014-Jul-13 20:33N 51°15' E 004°21'0 0.0
2014-Jul-13 19:33N 51°15' E 004°21'0 0.0
2014-Jul-13 18:33N 51°15' E 004°21'0 0.0
2014-Jul-13 17:33N 51°15' E 004°21'0 0.0
2014-Jul-13 16:33N 51°15' E 004°21'0 0.0
2014-Jul-13 15:33N 51°15' E 004°21'0 0.0
2014-Jul-13 14:33N 51°15' E 004°21'0 0.0
2014-Jul-13 13:33N 51°15' E 004°21'0 0.0
2014-Jul-13 12:33N 51°15' E 004°21'0 0.0
2014-Jul-13 11:33N 51°15' E 004°21'0 0.0
2014-Jul-13 10:33N 51°15' E 004°21'0 0.0
2014-Jul-13 09:33N 51°15' E 004°21'0 0.0
2014-Jul-13 08:33N 51°15' E 004°21'0 0.0
2014-Jul-13 07:33N 51°15' E 004°21'0 0.0
2014-Jul-13 06:33N 51°15' E 004°21'  

Dump ship's entire track history